[[{"header":{"parameterUnit":"m.s-1","parameterCategory":2,"la1":30.2992,"la2":30.254,"lo1":-89.0895,"lo2":-89.0443,"dy":0.0025,"dx":0.0025,"nx":19,"ny":19,"refTime":"2026-05-16T21:00:00:Z","depth":"0","parameterNumber":2,"parameterNumberName":"U-component_of_CURRENTS"},"data":[0,0,0,0.1925,0.1925,0.1945,0.1946,0.208,0.2082,0,0,0,0,0,0,0,0,0,0,0,0.1913,0.1913,0.1925,0.1925,0.1945,0.1946,0.208,0.2082,0,0,0,0,0,0,0,0,0,0,0,0.1913,0.1913,0.1913,0.1925,0.1945,0.1946,0.2079,0.2038,0,0,0,0,0,0,0,0,0,0,0.2005,0.198,0.1913,0.1913,0.1925,0.1945,0.1946,0.2034,0.204,0.2101,0,0.2097,0,0.2097,0.2093,0.2093,0,0,0,0.1927,0.1975,0.1979,0.1913,0.1926,0.1945,0.1937,0.2037,0.2044,0.211,0.2099,0.2103,0.21,0.2094,0.2095,0.2233,0.2233,0,0,0.1926,0.1924,0.1974,0.1983,0.1925,0.1936,0.1937,0.204,0.2048,0.2099,0.2106,0.2102,0.2095,0.2096,0.2232,0.2233,0,0,0,0.1922,0.1924,0.1923,0.1978,0.1976,0.1937,0.1938,0.2043,0.2042,0.2107,0.2104,0.2096,0.2098,0.2232,0.2233,0.2204,0,0,0,0.1921,0.1921,0.1922,0.1922,0.1973,0.1996,0.194,0.2035,0.2046,0.2103,0.2096,0.21,0.2232,0.2232,0.2204,0.2216,0,0,0,0.1913,0.1921,0.1919,0.1922,0.193,0.1994,0.1998,0.2036,0.2045,0.2094,0.21,0.2232,0.2232,0.2204,0.2215,0.2283,0,0,0,0.1916,0.1909,0.1919,0.1919,0.193,0.1958,0.1997,0.203,0.2067,0.2097,0.2232,0.2233,0.2205,0.2215,0.2282,0.2179,0.2177,0,0,0.1907,0.1908,0.1908,0.1918,0.1927,0.1956,0.1995,0.2057,0.2101,0.2206,0.2209,0.2204,0.2215,0.2283,0.2213,0.2209,0,0,0,0.1905,0.1899,0.1907,0.1914,0.1943,0.1981,0.2032,0.2073,0.2148,0.2125,0.2224,0.2233,0.2276,0.2212,0.221,0.191,0.2235,0.2235,0.2235,0.1879,0.189,0.1893,0.1912,0.1943,0.2007,0.2055,0.2126,0.2159,0.2187,0.2223,0.2276,0.2204,0.2202,0.1893,0.2227,0.2227,0.2227,0.2227,0.1853,0.1849,0.1881,0.1885,0.1939,0.1983,0.2094,0.2126,0.2242,0.2231,0.2274,0.2201,0.2197,0.1869,0.2225,0.2226,0.2226,0.2226,0.2226,0.1821,0.1823,0.1829,0.1852,0.1898,0.1971,0.2064,0.2152,0.2233,0.2275,0.2256,0.2255,0.196,0.2306,0.2307,0.2307,0.2307,0.2308,0.2308,0.1786,0.1795,0.1798,0.1826,0.1853,0.1923,0.2061,0.2142,0.2225,0.2248,0.2247,0.1926,0.2302,0.2292,0.2313,0.2312,0.2311,0.2311,0.2311,0.1742,0.1756,0.1752,0.1772,0.1837,0.1882,0.2015,0.2117,0.2217,0.2238,0.1842,0.2247,0.2265,0.2265,0.2256,0.2268,0.2268,0.2268,0.2268,0.1715,0.1724,0.1715,0.1743,0.1805,0.1868,0.1894,0.1921,0.1819,0.1659,0.1654,0.1525,0.1541,0.151,0.1527,0.15,0.132,0.1318,0.1317,0.1694,0.1693,0.1674,0.1702,0.1782,0.183,0.1765,0.1565,0.1323,0.125,0.1254,0.1294,0.1078,0.1127,0.106,0.1108,0.1061,0,0]},{"header":{"parameterUnit":"m.s-1","parameterCategory":2,"la1":30.2992,"la2":30.254,"lo1":-89.0895,"lo2":-89.0443,"dy":0.0025,"dx":0.0025,"nx":19,"ny":19,"refTime":"2026-05-16T21:00:00:Z","depth":"0","parameterNumber":3,"parameterNumberName":"V-component_of_CURRENTS"},"data":[0,0,0,0.0337,0.0338,0.0381,0.0381,0.045,0.0451,0,0,0,0,0,0,0,0,0,0,0,0.0324,0.0324,0.0337,0.0338,0.0381,0.0381,0.045,0.0451,0,0,0,0,0,0,0,0,0,0,0,0.0323,0.0324,0.0324,0.0338,0.038,0.0381,0.045,0.0415,0,0,0,0,0,0,0,0,0,0,0.0372,0.0353,0.0324,0.0324,0.0339,0.038,0.0381,0.0413,0.0417,0.0435,0,0.0442,0,0.0448,0.0456,0.0456,0,0,0,0.034,0.0349,0.0364,0.0324,0.0339,0.038,0.0362,0.0415,0.042,0.044,0.0443,0.0445,0.0449,0.0456,0.0457,0.0549,0.055,0,0,0.0338,0.0329,0.0361,0.0367,0.0351,0.0361,0.0363,0.0418,0.0421,0.0443,0.0447,0.045,0.0457,0.0457,0.0549,0.055,0,0,0,0.033,0.0327,0.0341,0.0364,0.0371,0.0362,0.0365,0.0419,0.0424,0.0448,0.0451,0.0457,0.0458,0.0548,0.0549,0.0584,0,0,0,0.0328,0.0323,0.034,0.0335,0.0369,0.0392,0.0365,0.0421,0.0427,0.0451,0.0457,0.0459,0.0548,0.0549,0.0582,0.0612,0,0,0,0.0321,0.0322,0.0328,0.0334,0.0352,0.0391,0.04,0.0422,0.0429,0.0456,0.0459,0.0548,0.0549,0.058,0.0608,0.0682,0,0,0,0.031,0.0329,0.0328,0.0355,0.0351,0.0404,0.04,0.0437,0.0463,0.0458,0.0548,0.0549,0.058,0.0606,0.0679,0.0775,0.0797,0,0,0.0329,0.033,0.0349,0.035,0.0404,0.0398,0.0463,0.0488,0.0486,0.053,0.0532,0.0583,0.0608,0.0681,0.084,0.086,0,0,0,0.0353,0.0368,0.0385,0.0414,0.0445,0.0487,0.0507,0.052,0.0557,0.0506,0.0596,0.0612,0.0656,0.0708,0.0724,0.0692,0.0554,0.0554,0.0554,0.0368,0.0392,0.0435,0.0474,0.0507,0.0553,0.0589,0.0612,0.0601,0.0621,0.0649,0.0742,0.0797,0.081,0.0775,0.0652,0.0652,0.0652,0.0652,0.0413,0.0444,0.0477,0.0527,0.057,0.062,0.0676,0.0678,0.0748,0.0701,0.0743,0.0754,0.083,0.0786,0.0655,0.0654,0.0654,0.0654,0.0654,0.043,0.045,0.0479,0.055,0.0612,0.0663,0.0751,0.0774,0.0792,0.0831,0.0915,0.0915,0.0871,0.0861,0.0862,0.0862,0.0862,0.0863,0.0863,0.0436,0.0469,0.0513,0.0579,0.0623,0.0699,0.0799,0.087,0.097,0.0984,0.0984,0.0913,0.0807,0.0793,0.087,0.0869,0.0868,0.0867,0.0867,0.0464,0.0473,0.0537,0.0581,0.0685,0.0793,0.0881,0.1077,0.1146,0.1222,0.1129,0.1074,0.1083,0.1071,0.1064,0.1207,0.1207,0.1207,0.1207,0.0473,0.0487,0.0562,0.0629,0.0723,0.0835,0.1064,0.1239,0.1314,0.1318,0.1248,0.1198,0.1186,0.1195,0.118,0.1173,0.1341,0.1341,0.1341,0.0493,0.0513,0.0561,0.063,0.0735,0.09,0.1144,0.1349,0.1396,0.1336,0.1184,0.1179,0.1088,0.1072,0.1067,0.1049,0.103,0,0]}],[{"header":{"parameterUnit":"m.s-1","parameterCategory":2,"la1":30.2992,"la2":30.254,"lo1":-89.0895,"lo2":-89.0443,"dy":0.0025,"dx":0.0025,"nx":19,"ny":19,"refTime":"2026-05-16T21:00:00:Z","depth":"2","parameterNumber":2,"parameterNumberName":"U-component_of_CURRENTS"},"data":[0,0,0,0.1637,0.1638,0.1688,0.1688,0.1801,0.1803,0,0,0,0,0,0,0,0,0,0,0,0.1628,0.1629,0.1637,0.1638,0.1688,0.1688,0.1801,0.1803,0,0,0,0,0,0,0,0,0,0,0,0.1628,0.1629,0.1629,0.1639,0.1688,0.1688,0.1801,0.1752,0,0,0,0,0,0,0,0,0,0,0.1698,0.1679,0.1629,0.1629,0.1639,0.1688,0.1688,0.1749,0.1755,0.1792,0,0.1805,0,0.1803,0.1811,0.1811,0,0,0,0.1642,0.1674,0.1688,0.163,0.1639,0.1688,0.1666,0.1752,0.1759,0.18,0.1806,0.181,0.1805,0.1812,0.1812,0.189,0.189,0,0,0.1639,0.1637,0.1684,0.1693,0.166,0.1665,0.1668,0.1756,0.1767,0.1807,0.1812,0.1807,0.1813,0.1814,0.189,0.189,0,0,0,0.1629,0.1636,0.1647,0.1689,0.1692,0.1666,0.167,0.1763,0.1767,0.1813,0.1808,0.1813,0.1815,0.189,0.189,0.19,0,0,0,0.1627,0.1629,0.1646,0.1645,0.169,0.172,0.1675,0.1761,0.1771,0.1808,0.1813,0.1816,0.189,0.189,0.19,0.1908,0,0,0,0.1625,0.1629,0.1637,0.1645,0.1664,0.1719,0.1728,0.1763,0.1768,0.1811,0.1816,0.189,0.189,0.19,0.1907,0.1971,0,0,0,0.1618,0.1625,0.1637,0.165,0.1663,0.1689,0.1727,0.1758,0.1792,0.1814,0.189,0.189,0.19,0.1907,0.197,0.1784,0.1775,0,0,0.1618,0.1626,0.1632,0.1643,0.1653,0.1682,0.1711,0.1774,0.1801,0.1866,0.1868,0.19,0.1907,0.1971,0.1771,0.1762,0,0,0,0.1625,0.1627,0.1633,0.1646,0.167,0.1694,0.1746,0.178,0.184,0.182,0.1893,0.1897,0.1937,0.1821,0.1814,0.1889,0.1889,0.1889,0.1889,0.1614,0.1624,0.1628,0.1642,0.1665,0.1714,0.1752,0.1808,0.1841,0.1864,0.1899,0.1945,0.1818,0.1812,0.1891,0.1891,0.1891,0.1891,0.1891,0.1594,0.1594,0.1617,0.1624,0.1661,0.17,0.178,0.1817,0.1914,0.1903,0.1943,0.1829,0.1804,0.1892,0.1892,0.1892,0.1892,0.1891,0.1891,0.1571,0.1572,0.1584,0.1604,0.1645,0.1701,0.1774,0.1848,0.1924,0.1963,0.188,0.1877,0.198,0.2005,0.2005,0.2005,0.2006,0.2006,0.2006,0.1545,0.1553,0.1559,0.1584,0.16,0.1669,0.179,0.1849,0.1881,0.188,0.1878,0.1984,0.198,0.1987,0.2011,0.201,0.2009,0.2009,0.2008,0.1507,0.1523,0.1521,0.1526,0.1574,0.1574,0.17,0.1736,0.1822,0.1789,0.1837,0.184,0.1831,0.1832,0.1835,0.1819,0.1819,0.1819,0.1819,0.1487,0.1491,0.1485,0.1479,0.1514,0.153,0.1478,0.1441,0.1513,0.1493,0.1507,0.1403,0.1417,0.1381,0.1393,0.1386,0.1253,0.1252,0.1251,0.146,0.1461,0.1437,0.1445,0.1465,0.1467,0.1307,0.106,0.1027,0.1232,0.1437,0.1775,0.1656,0.1665,0.1637,0.1646,0.1645,0,0]},{"header":{"parameterUnit":"m.s-1","parameterCategory":2,"la1":30.2992,"la2":30.254,"lo1":-89.0895,"lo2":-89.0443,"dy":0.0025,"dx":0.0025,"nx":19,"ny":19,"refTime":"2026-05-16T21:00:00:Z","depth":"2","parameterNumber":3,"parameterNumberName":"V-component_of_CURRENTS"},"data":[0,0,0,0.0145,0.0146,0.019,0.019,0.023,0.023,0,0,0,0,0,0,0,0,0,0,0,0.0132,0.0133,0.0145,0.0146,0.019,0.019,0.023,0.023,0,0,0,0,0,0,0,0,0,0,0,0.0132,0.0133,0.0133,0.0146,0.019,0.019,0.023,0.0201,0,0,0,0,0,0,0,0,0,0,0.016,0.0148,0.0133,0.0133,0.0146,0.019,0.019,0.02,0.0203,0.0205,0,0.0215,0,0.0221,0.0233,0.0233,0,0,0,0.0147,0.0145,0.016,0.0133,0.0147,0.019,0.0171,0.0202,0.0205,0.0209,0.0215,0.0217,0.0222,0.0233,0.0233,0.0288,0.0288,0,0,0.0145,0.0138,0.0157,0.0162,0.0162,0.0169,0.0172,0.0204,0.0207,0.0215,0.0218,0.0223,0.0233,0.0233,0.0288,0.0288,0,0,0,0.0137,0.0136,0.015,0.016,0.0168,0.017,0.0174,0.0206,0.0211,0.0218,0.0223,0.0233,0.0234,0.0287,0.0288,0.0337,0,0,0,0.0135,0.0131,0.0149,0.0144,0.0168,0.0189,0.0175,0.0209,0.0213,0.0223,0.0233,0.0234,0.0287,0.0288,0.0334,0.0366,0,0,0,0.013,0.013,0.0137,0.0144,0.0162,0.0189,0.0196,0.021,0.0216,0.0233,0.0234,0.0287,0.0288,0.0333,0.0363,0.0431,0,0,0,0.0118,0.0138,0.0137,0.0165,0.0162,0.0208,0.0196,0.0228,0.0245,0.0233,0.0287,0.0288,0.0332,0.036,0.0428,0.0492,0.0511,0,0,0.0138,0.014,0.0159,0.0159,0.0209,0.0201,0.0256,0.0269,0.0258,0.0274,0.0276,0.0335,0.0362,0.0431,0.0542,0.056,0,0,0,0.0163,0.0177,0.0192,0.022,0.0246,0.0279,0.0291,0.0297,0.0319,0.0272,0.0339,0.0355,0.0397,0.0429,0.0443,0.0292,0.0292,0.0292,0.0292,0.018,0.0201,0.0241,0.0273,0.0302,0.0337,0.0367,0.0376,0.0357,0.0373,0.0397,0.0487,0.052,0.0531,0.0394,0.0395,0.0395,0.0395,0.0395,0.0221,0.0249,0.0279,0.0324,0.0359,0.0403,0.0443,0.0443,0.0498,0.0448,0.0486,0.0481,0.055,0.0399,0.0398,0.0398,0.0397,0.0397,0.0397,0.0237,0.0254,0.0281,0.0347,0.0405,0.0448,0.0527,0.0541,0.0551,0.0588,0.0641,0.0641,0.0533,0.0616,0.0616,0.0617,0.0617,0.0617,0.0618,0.0241,0.027,0.0313,0.0374,0.0419,0.0495,0.0581,0.0645,0.0719,0.0715,0.0715,0.0562,0.0555,0.0546,0.0625,0.0623,0.0623,0.0622,0.0621,0.0266,0.0275,0.0337,0.038,0.0487,0.0596,0.0673,0.084,0.0887,0.0949,0.0794,0.0788,0.0787,0.0775,0.0772,0.0905,0.0905,0.0905,0.0905,0.0278,0.0287,0.0365,0.0431,0.053,0.0642,0.0852,0.0953,0.0979,0.0928,0.0926,0.087,0.0859,0.0857,0.0843,0.0839,0.099,0.099,0.099,0.0297,0.0317,0.037,0.0436,0.0544,0.0716,0.0939,0.1003,0.0934,0.0986,0.0872,0.0924,0.0834,0.082,0.0807,0.0789,0.0778,0,0]}],[{"header":{"parameterUnit":"m.s-1","parameterCategory":2,"la1":30.2992,"la2":30.254,"lo1":-89.0895,"lo2":-89.0443,"dy":0.0025,"dx":0.0025,"nx":19,"ny":19,"refTime":"2026-05-16T21:00:00:Z","depth":"4","parameterNumber":2,"parameterNumberName":"U-component_of_CURRENTS"},"data":[0,0,0,0.0833,0.0834,0.0889,0.0889,0.0894,0.0894,0,0,0,0,0,0,0,0,0,0,0,0.0826,0.0827,0.0833,0.0834,0.0889,0.0889,0.0894,0.0894,0,0,0,0,0,0,0,0,0,0,0,0.0826,0.0826,0.0827,0.0834,0.0889,0.0889,0.0895,0.0871,0,0,0,0,0,0,0,0,0,0,0.0827,0.0833,0.0826,0.0827,0.0834,0.0889,0.0889,0.0871,0.0872,0.0849,0,0.0865,0,0.0869,0.0892,0.0892,0,0,0,0.0841,0.0832,0.0837,0.0827,0.0835,0.0888,0.0866,0.0872,0.0874,0.0851,0.0865,0.0865,0.0869,0.0892,0.0892,0.0926,0.0927,0,0,0.0838,0.0842,0.0836,0.0838,0.0857,0.0864,0.0868,0.0874,0.0884,0.0865,0.0866,0.0869,0.0892,0.0892,0.0926,0.0926,0,0,0,0.0825,0.084,0.0847,0.0838,0.0847,0.0866,0.087,0.0884,0.0884,0.0866,0.087,0.0892,0.0892,0.0925,0.0926,0.0952,0,0,0,0.0823,0.0831,0.0845,0.0849,0.0848,0.0876,0.0879,0.0884,0.0885,0.0869,0.0892,0.0891,0.0924,0.0925,0.095,0.094,0,0,0,0.0822,0.0831,0.0838,0.0849,0.0867,0.0876,0.0878,0.0885,0.0886,0.0892,0.0891,0.0924,0.0925,0.0948,0.0938,0.0935,0,0,0,0.0822,0.0829,0.0839,0.0848,0.0866,0.0881,0.0878,0.0902,0.0912,0.0892,0.0924,0.0926,0.0947,0.0936,0.0934,0.0765,0,0,0,0.0823,0.083,0.0832,0.0841,0.0846,0.0874,0.0889,0.0908,0.0925,0.0917,0.0918,0.0951,0.0937,0.0935,0.0848,0,0,0,0,0.0826,0.0827,0.0831,0.0842,0.0857,0.0878,0.0903,0.0919,0.0964,0.0935,0.0971,0.0962,0.0959,0.0859,0.0932,0.0932,0.0932,0.0932,0.0932,0.0825,0.0827,0.0827,0.0834,0.0851,0.0887,0.0918,0.0951,0.0962,0.1005,0.1,0.1035,0.0935,0.103,0.103,0.103,0.103,0.103,0.103,0.0807,0.0796,0.0815,0.0821,0.0848,0.0874,0.0924,0.0964,0.102,0.1033,0.103,0.0915,0.1033,0.1033,0.1032,0.1032,0.1032,0.1032,0.1031,0.0788,0.0779,0.08,0.0812,0.0834,0.0874,0.0889,0.0969,0.1031,0.1059,0.0945,0.1044,0.1021,0.1065,0.1065,0.1065,0.1065,0.1065,0.1065,0.0756,0.0766,0.0766,0.0791,0.0794,0.0824,0.0886,0.0901,0.0973,0.0943,0.1065,0.1046,0.1045,0.1023,0.1064,0.1064,0.1064,0.1064,0.1065,0.0707,0.073,0.0715,0.0716,0.0693,0.0675,0.078,0.0782,0.0792,0.0775,0.0874,0.0883,0.0848,0.0851,0.0821,0.0804,0.0801,0.0799,0,0.068,0.0685,0.0646,0.0589,0.052,0.0554,0.0517,0.0559,0.0636,0.0623,0.0751,0.0859,0.0867,0.0822,0.0823,0.0783,0,0,0,0.0649,0.0642,0.0591,0.0526,0.0402,0.0395,0.0486,0.0464,0.0682,0.0614,0.0748,0.0761,0.0883,0.1063,0.1031,0.103,0.0992,0,0]},{"header":{"parameterUnit":"m.s-1","parameterCategory":2,"la1":30.2992,"la2":30.254,"lo1":-89.0895,"lo2":-89.0443,"dy":0.0025,"dx":0.0025,"nx":19,"ny":19,"refTime":"2026-05-16T21:00:00:Z","depth":"4","parameterNumber":3,"parameterNumberName":"V-component_of_CURRENTS"},"data":[0,0,0,0.009,0.0091,0.0125,0.0126,0.0161,0.0162,0,0,0,0,0,0,0,0,0,0,0,0.0079,0.008,0.009,0.0091,0.0125,0.0126,0.0161,0.0162,0,0,0,0,0,0,0,0,0,0,0,0.0079,0.0079,0.008,0.0091,0.0125,0.0126,0.0161,0.0138,0,0,0,0,0,0,0,0,0,0,0.0106,0.0096,0.0079,0.008,0.0092,0.0125,0.0126,0.0137,0.0139,0.0143,0,0.0148,0,0.0155,0.0164,0.0164,0,0,0,0.0093,0.0094,0.0103,0.008,0.0092,0.0125,0.0111,0.0138,0.0141,0.0146,0.0149,0.015,0.0155,0.0164,0.0164,0.0215,0.0215,0,0,0.0091,0.0086,0.0101,0.0104,0.0101,0.0109,0.0112,0.014,0.0143,0.0149,0.0151,0.0156,0.0164,0.0164,0.0215,0.0215,0,0,0,0.0085,0.0085,0.0093,0.0103,0.0109,0.011,0.0113,0.0142,0.0145,0.0152,0.0156,0.0164,0.0164,0.0214,0.0215,0.0262,0,0,0,0.0084,0.0081,0.0092,0.009,0.0109,0.0127,0.0114,0.0143,0.0146,0.0156,0.0164,0.0165,0.0214,0.0215,0.026,0.0293,0,0,0,0.0078,0.008,0.0084,0.0089,0.0103,0.0127,0.0131,0.0144,0.0149,0.0164,0.0165,0.0214,0.0214,0.0258,0.0289,0.0333,0,0,0,0.0071,0.0083,0.0084,0.0104,0.0103,0.0138,0.0131,0.0156,0.0171,0.0164,0.0214,0.0215,0.0258,0.0287,0.0331,0.0295,0,0,0,0.0083,0.0084,0.0098,0.01,0.0138,0.0133,0.0179,0.0192,0.0184,0.0203,0.0205,0.0261,0.0289,0.0333,0.0341,0,0,0,0,0.01,0.011,0.0122,0.0145,0.0165,0.0201,0.0208,0.0218,0.0244,0.0196,0.0264,0.028,0.0306,0.0277,0.0219,0.0218,0.0218,0.0218,0.0218,0.011,0.0128,0.0158,0.0187,0.0213,0.0248,0.028,0.0295,0.0276,0.0296,0.0321,0.039,0.0361,0.0315,0.0316,0.0316,0.0316,0.0316,0.0316,0.0136,0.0156,0.0188,0.0223,0.0263,0.0303,0.0353,0.0358,0.0411,0.0373,0.0395,0.0331,0.0321,0.032,0.0319,0.0319,0.0318,0.0318,0.0318,0.0143,0.0156,0.018,0.0237,0.0299,0.0347,0.0435,0.0458,0.046,0.0492,0.0461,0.0433,0.0428,0.05,0.0501,0.0501,0.0501,0.0502,0.0502,0.0138,0.0164,0.0199,0.0259,0.0313,0.0397,0.0491,0.0538,0.0548,0.0525,0.0511,0.0452,0.0446,0.0439,0.0507,0.0506,0.0506,0.0505,0.0505,0.0149,0.0158,0.0212,0.0263,0.039,0.0459,0.0542,0.0597,0.0644,0.063,0.0543,0.0539,0.0524,0.0516,0.051,0.0603,0.0603,0.0602,0,0.0155,0.0162,0.0239,0.0326,0.0438,0.0508,0.0586,0.063,0.0616,0.0591,0.0637,0.0537,0.0533,0.0513,0.0506,0.0498,0,0,0,0.0171,0.019,0.025,0.0332,0.0464,0.0552,0.0612,0.0614,0.06,0.0628,0.0598,0.0599,0.0564,0.0523,0.0492,0.0484,0.0471,0,0]}]]